Regional Weather Roundup
Issued by NWS

Home | Current Version | Previous Version | Graphics & Text | Print | Product List | Glossary On
Versions: 1 2 3 4 5 6 7 8 9 10 11 12 13 14 15 16 17 18 19 20 21 22 23 24 25 26 27 28 29 30 31 32 33 34 35 36 37 38 39 40 41 42 43 44 45 46 47 48 49 50
000
ASUS43 KTOP 011859
RWRKS

WEATHER ROUNDUP FOR KANSAS
NATIONAL WEATHER SERVICE GOODLAND KS
200 PM CDT SAT OCT 01 2016

NOTE:  "FAIR" INDICATES FEW OR NO CLOUDS BELOW 12,000 FEET WITH NO
SIGNIFICANT WEATHER AND/OR OBSTRUCTIONS TO VISIBILITY.

KSZ001>006-013>018-027>032-041>047-012000-
NORTHWEST KANSAS

CITY           SKY/WX    TMP DP  RH WIND       PRES   REMARKS
GOODLAND       SUNNY     73  49  42 SE12G23   30.07F
HAYS           SUNNY     77  48  36 S13       30.06F
HILL CITY      SUNNY     75  52  44 SE9       30.07F
RUSSELL        CLOUDY    74  49  41 SE8       30.06F
$$

KSZ061>065-074>080-084>089-012000-
SOUTHWEST KANSAS

CITY           SKY/WX    TMP DP  RH WIND       PRES   REMARKS
DODGE CITY     SUNNY     79  50  36 SE14G21   30.05F
ELKHART          N/A     81  54  39 SE6         N/A
GARDEN CITY    MOSUNNY   76  51  41 SE14      30.03F
GREAT BEND     MOSUNNY   77  48  36 SE10      30.06F
LIBERAL        CLOUDY    72  54  53 S7        30.05F
$$

KSZ066>073-081>083-090>101-012000-
SOUTHEAST KANSAS

CITY           SKY/WX    TMP DP  RH WIND       PRES   REMARKS
CHANUTE        SUNNY     75  50  41 MISG      30.08F
COFFEYVILLE    SUNNY     77  51  40 CALM      30.07F
HUTCHINSON     SUNNY     75  49  39 SE6       30.08F
MEDICINE LODGE   N/A     76  51  41 S9G17     30.05F
NEWTON         SUNNY     73  50  44 S9        30.09F
PARSONS        MOSUNNY   75  51  43 SW6       30.09F
WICHITA INTL   MOSUNNY   75  50  41 SE3       30.07F
WICHITA JABRA  SUNNY     72  51  47 SE3       30.08F
WICHITA MCCONL MOSUNNY   75  51  43 S3        30.08F
WINFIELD       SUNNY     75  49  39 CALM      30.09F
$$

KSZ007>012-019>026-033>040-048>060-102>105-012000-
NORTHEAST KANSAS

CITY           SKY/WX    TMP DP  RH WIND       PRES   REMARKS
CONCORDIA      SUNNY     73  47  39 S5        30.09F HAZE
EMPORIA        SUNNY     74  50  42 NE6       30.08F
LAWRENCE       MOSUNNY   72  56  57 VRB5      30.09F
MANHATTAN      SUNNY     73  50  44 VRB5      30.09F
OLATHE IND     MOSUNNY   69  54  58 NW3       30.10F
OLATHE EXE     PTSUNNY   67  52  58 N5        30.09F
SALINA         SUNNY     76  47  35 CALM      30.08F
TOPEKA BILLARD PTSUNNY   70  54  56 NE7       30.09F
TOPEKA FORBES  MOSUNNY   71  55  56 N3        30.09F
$$




USA.gov is the U.S. government's official web portal to all federal, state and local government web resources and services.